Weather in Mikhaylovskoye

Russia / Republic of Karelia     61°00′52″N   33°43′57″E
temp.,
°C
wind,
m/s
gust,
m/s
humid.,
%
clouds,
%
prec.,
mm/h
press.,
hPa
HPBL,
m
13 august, sat
sat1300:00+17w1179100 0.0 102114
03:00+17ssw1183100 0.0 102120
06:00+16nnw1198100 1.0 102127
09:00+16n1395100 1.1 1022113
12:00+19nne127035 0.0 1022555
15:00+24nw233795 0.0 10221695
18:00+23nnw22385 0.0 10211253
21:00+14ene23693 0.0 102249
14 august, sun
sun1400:00+12e22710 0.0 102333
03:00+11ene22705 0.0 102320
06:00+11ene22705 0.0 102343
09:00+18e234729 0.0 1023365
12:00+23ese22345 0.0 10221110
15:00+25ese11295 0.0 10211481
18:00+24ene11365 0.0 1021495
21:00+17e22570 0.0 102131
15 august, mon
mon1500:00+14e22652 0.0 102133
03:00+13e22705 0.0 102221
06:00+14e22815 0.0 102234
09:00+21ese23565 0.0 1022340
12:00+26se23412 0.0 10221232
15:00+29se23365 0.0 10212343
18:00+28se234260 0.0 1020419
21:00+21ese246480 0.0 102192
16 august, tue
tue1600:00+20ese266897 0.0 1021144
03:00+17ese228284 0.0 102142
06:00+19se247766 0.0 1021117
09:00+24s255974 0.0 1022418
12:00+28sse354167 0.0 10211455
15:00+30ssw353369 0.0 10202617
18:00+27sse374451 0.0 1020432
21:00+22ese286469 0.0 1020154
17 august, wed
wed1700:00+22sse31062100 0.0 1020246
03:00+18sse27727 0.0 1020151
06:00+18sse257694 0.0 1020113
09:00+23s26585 0.0 1020354
12:00+28ssw46385 0.0 10201624
15:00+30ssw343520 0.0 10192292
18:00+28wsw234330 0.0 1019722
21:00+21nne11705 0.0 101911